Regional Weather Roundup
Issued by NWS

Home | Current Version | Previous Version | Graphics & Text | Print | Product List | Glossary On
Versions: 1 2 3 4 5 6 7 8 9 10 11 12 13 14 15 16 17 18 19 20 21 22 23 24 25 26 27 28 29 30 31 32 33 34 35 36 37 38 39 40 41 42 43 44 45 46 47 48
000
ASUS45 KBOU 090407
RWRCO

WEATHER ROUNDUP FOR COLORADO
NATIONAL WEATHER SERVICE DENVER/BOULDER CO
900 PM MST MON FEB 08 2016

NOTE: "FAIR" INDICATES FEW OR NO CLOUDS BELOW 12000 FEET WITH NO
SIGNIFICANT WEATHER AND/OR OBSTRUCTIONS TO VISIBILITY.

COZ001>005-013-030-031-090500-
...NORTHWEST COLORADO...

CITY           SKY/WX    TMP DP  RH WIND       PRES   REMARKS
CRAIG          CLOUDY     4   1  88 CALM      30.54R
HAYDEN         CLOUDY    19  12  73 SE6       30.51S WCI  11
MEEKER         CLOUDY    14  10  84 E3        30.52R
MOUNT WERNER   NOT AVBL
STEAMBOAT SPGS CLOUDY    17  13  84 CALM      30.52R
WALDEN         CLOUDY    18  10  73 SE3       30.48S
$$

COZ006>008-011-090500-
...WEST CENTRAL VALLEYS...

CITY           SKY/WX    TMP DP  RH WIND       PRES   REMARKS
GRAND JUNCTION CLOUDY    20  18  92 E3        30.52S
MONTROSE       CLOUDY    24  18  77 SE5       30.54R WCI  18
EAGLE          CLEAR     19  14  79 SE5       30.53S WCI  13
RIFLE          CLOUDY    25  16  68 CALM      30.52R
DELTA          CLOUDY    29  24  79 CALM      30.53S
NUCLA          CLOUDY    32  23  69 CALM      30.52R
$$

COZ017>023-064>068-090500-
...SOUTHWEST COLORADO...

CITY           SKY/WX    TMP DP  RH WIND       PRES   REMARKS
DURANGO        CLOUDY    27  20  75 N7        30.42S WCI  19
CORTEZ         CLOUDY    29  22  75 SE3       30.45R
PAGOSA SPRINGS CLOUDY    27  20  75 CALM      30.44S
TELLURIDE      NOT AVBL
WOLF CREEK PAS CLOUDY    27   0  31 N14G25    30.55R WCI  15
$$

COZ009-010-012-014-032>034-037-058>063-090500-
...CENTRAL COLORADO...

CITY           SKY/WX    TMP DP  RH WIND       PRES   REMARKS
ASPEN          CLOUDY    20  14  77 S8        30.50F WCI  10
BUENA VISTA    CLOUDY    36  18  47 NW23G32   30.40F
COPPER MTN     CLOUDY    23  16  74 W15       30.51S WCI  10
BERTHOUD PASS  HAZE      12   1  62 NW23G31   30.46S VSB 1/4 WCI  -7
COTTONWOOD PAS CLOUDY    34  10  37 NW8G21    30.44S WCI  27
GUNNISON       CLOUDY     9   0  66 CALM      30.56R
KREMMLING      CLOUDY    10   7  85 CALM      30.53R
LEADVILLE      CLOUDY    21  14  74 N7        30.48S WCI  12
MONARCH PASS   CLOUDY    23  10  58 MISG      30.61R
SALIDA         NOT AVBL
SUNLIGHT       CLOUDY    27  18  69 NW6         N/A  WCI  20
WILKERSON PASS CLOUDY    27   5  39 NW13G23   30.47S WCI  16
$$

COZ069>075-090500-
...SAN LUIS VALLEY/SANGRE DE CRISTO MOUNTAINS...

CITY           SKY/WX    TMP DP  RH WIND       PRES   REMARKS
ALAMOSA        CLOUDY    25  19  78 W5        30.42R WCI  19
LA VETA PASS   CLOUDY    28  14  54 MISG      30.45R
SAGUACHE       CLOUDY    34  19  55 N15       30.46R WCI  24
$$

COZ035-036-038>040-090500-
...NORTHERN COLORADO FRONT RANGE...

CITY           SKY/WX    TMP DP  RH WIND       PRES   REMARKS
DENVER INTL AP CLOUDY    33  23  66 S14       30.32F WCI  23
DMNS CITY PARK   N/A     35  23  60 SE8G21    30.33S WCI  29
AURORA         MOCLDY    33  25  73 S10       30.34S WCI  24
FRONT RANGE AP MOCLDY    28  21  74 S7        30.33F WCI  21
ERIE MUNI ARPT CLOUDY    30  26  84 S5        30.32S WCI  25
BOULDER MUN AP CLOUDY    34  25  69 W3        30.31F
CENTENNIAL     CLOUDY    34  23  64 S8        30.34R WCI  27
BROOMFIELD     MOCLDY    37  23  56 S7        30.33R
FORT COLLINS   CLOUDY    32  23  69 SW6       30.32F WCI  26
LONGMONT       CLOUDY    30  23  75 W6        30.34F WCI  24
$$

COZ041-046-047-076>085-087-088-090500-
...PIKES PEAK/PALMER DIVIDE AND SOUTHERN FOOTHILLS...

CITY           SKY/WX    TMP DP  RH WIND       PRES   REMARKS
COLO. SPRINGS  CLOUDY    25  17  72 N6        30.39S WCI  18
A. F. ACADEMY  CLOUDY    21  17  83 N8        30.37S WCI  12
SCHRIEVER AFB  NOT AVBL
ELLICOTT       NOT AVBL
FALCON         CLOUDY    24  18  76 W7        30.38S WCI  16
FORT CARSON    CLOUDY    29  21  71 NW5       30.37S WCI  24
LIMON          CLOUDY    30  22  72 W9        30.33S WCI  22
MONUMENT HILL  CLOUDY    21  16  79 SW7       30.37S WCI  13
TRINIDAD       CLOUDY    30  20  66 SW7       30.39R WCI  23
$$

COZ042>045-048>051-090-091-090500-
...NORTHEAST COLORADO...

CITY           SKY/WX    TMP DP  RH WIND       PRES   REMARKS
GREELEY ARPT   CLOUDY    25  19  80 S5        30.33R WCI  19
AKRON          CLOUDY    37  27  67 NW23      30.28F
BURLINGTON     CLOUDY    30  23  75 NW9       30.28R WCI  22
WRAY           CLEAR     35  29  80 W12       30.26F WCI  27
STERLING       CLOUDY    34  30  86 NW13      30.28F WCI  25
HOLYOKE        CLEAR     37  28  70 NW13      30.25S
FORT MORGAN    CLOUDY    34  26  71 W9        30.32S WCI  27
$$

COZ086-089-092>099-090500-
...SOUTHEAST COLORADO...

CITY           SKY/WX    TMP DP  RH WIND       PRES   REMARKS
PUEBLO         CLOUDY    30  23  75 CALM      30.37S
LA JUNTA       CLOUDY    33  24  69 W9        30.35F WCI  25
LAMAR          CLEAR     32  25  75 W10       30.32S WCI  24
SPRINGFIELD      N/A     31  22  69 W12       30.33F WCI  22
$$



USA.gov is the U.S. government's official web portal to all federal, state and local government web resources and services.